Retour au catalogue

GEESAT 3-09

ActifCommunicationsLEO
NORAD 61019·PAYLOAD·🇨🇳 China

Lancé Sep 5, 2024 depuis Taiyuan Satellite Launch Center

Loading…

Prochains Passages (prochaines 24 heures)

TLE

FraisSource: Space-Track

Époque: Sep 14, 2026, 20:44 UTC

1 61019U 24159J   26257.86410768  .00001472  00000-0  19954-3 0  9995
2 61019  49.9989  26.6474 0021548  45.4053 314.8640 14.84479157110094

Suivez GEESAT 3-09 en temps réel avec AllMySat

Download on the App Store